[[{"header":{"parameterUnit":"m.s-1","parameterCategory":1,"la1":30.2991,"la2":30.254,"lo1":-89.0895,"lo2":-89.0444,"dy":0.0017,"dx":0.0017,"nx":28,"ny":28,"refTime":"2025-03-31T21:00:00:Z","depth":0,"parameterNumber":2,"parameterNumberName":"U-component_of_WINDS"},"data":[0,0,0,0,0,0,0,0,0,0,0,0,0,0,0,0,0,0,0,0,0,0,0,0,0,0,0,0,0,0,0,0,0,0,0,0,0,0,0,0,0,0,0,0,0,0,0,0,0,0,0,0,0,0,0,0,0,0,-4.408,-4.4082,0,-4.4227,-4.4228,-4.423,-4.4267,-4.4266,-4.4265,-4.4264,-4.4415,-4.442,-4.4425,0,0,0,0,0,0,0,0,0,0,0,0,0,-4.3834,-4.3839,-4.408,-4.4082,-4.4084,-4.4226,-4.4228,-4.423,-4.4267,-4.4266,-4.4265,-4.4264,-4.4413,-4.4419,-4.4425,0,0,0,0,0,0,0,0,0,0,0,0,0,-4.3957,-4.384,-4.408,-4.4119,-4.4124,-4.4226,-4.4228,-4.4231,-4.4267,-4.4266,-4.4264,-4.4263,-4.4411,-4.4419,-4.4426,-4.4499,0,0,-4.4448,-4.4451,0,0,0,0,0,0,0,0,-4.395,-4.3966,-4.4112,-4.4117,-4.4123,-4.4227,-4.4197,-4.4321,-4.4268,-4.4213,-4.4264,-4.4262,-4.4354,-4.4366,-4.4396,-4.4506,-4.4513,-4.4449,-4.4453,-4.4456,-4.4458,0,0,0,0,0,0,0,-4.3941,-4.396,-4.4138,-4.4114,-4.412,-4.413,-4.4146,-4.4221,-4.4289,-4.4218,-4.4221,-4.4237,-4.4356,-4.4389,-4.44,-4.4515,-4.4449,-4.4455,-4.446,-4.4462,-4.4693,-4.4694,0,0,0,0,0,0,-4.3926,-4.3952,-4.4134,-4.4143,-4.4031,-4.4136,-4.4154,-4.4195,-4.4289,-4.4302,-4.4238,-4.4239,-4.4377,-4.4391,-4.4405,-4.4497,-4.4456,-4.4463,-4.4467,-4.4691,-4.4693,-4.4695,0,0,0,0,0,0,-4.392,-4.3942,-4.4128,-4.4048,-4.4073,-4.4142,-4.4188,-4.4199,-4.4231,-4.4304,-4.4317,-4.4259,-4.4377,-4.4395,-4.4475,-4.4503,-4.4467,-4.4473,-4.4689,-4.4692,-4.4694,-4.468,0,0,0,0,0,0,-4.3913,-4.3939,-4.3967,-4.4049,-4.4077,-4.4194,-4.4189,-4.4202,-4.4244,-4.4245,-4.4327,-4.4339,-4.4377,-4.4464,-4.4483,-4.4512,-4.4479,-4.4687,-4.469,-4.4693,-4.4679,-4.4682,-4.4685,0,0,0,0,0,-4.3904,-4.3958,-4.3969,-4.399,-4.4113,-4.4196,-4.4212,-4.4254,-4.4246,-4.4275,-4.4322,-4.4337,-4.4497,-4.4472,-4.4493,-4.4525,-4.4685,-4.4689,-4.4693,-4.4677,-4.4681,-4.4685,0,0,0,0,0,0,-4.3878,-4.3969,-4.3982,-4.4064,-4.4122,-4.4202,-4.4239,-4.4257,-4.4319,-4.4318,-4.4368,-4.4386,-4.4463,-4.4503,-4.4473,-4.4601,-4.4591,-4.4599,-4.4572,-4.4577,-4.458,-4.4568,-4.4485,0,0,0,0,0,-4.3882,-4.3941,-4.4018,-4.4082,-4.4111,-4.417,-4.4208,-4.4235,-4.4298,-4.4322,-4.4375,-4.4436,-4.45,-4.4541,-4.4604,-4.4685,-4.4704,-4.4718,-4.4721,-4.4724,-4.4729,-4.4775,-4.4782,-4.4707,-4.4707,-4.4707,0,0,-4.389,-4.3947,-4.3981,-4.4078,-4.4127,-4.4187,-4.4191,-4.4254,-4.43,-4.4332,-4.4411,-4.4452,-4.4523,-4.4604,-4.4642,-4.4639,-4.4755,-4.4728,-4.473,-4.4735,-4.478,-4.4787,-4.4793,-4.471,-4.471,-4.4709,0,0,-4.3935,-4.3985,-4.4044,-4.4092,-4.4165,-4.4205,-4.4219,-4.4297,-4.4325,-4.4405,-4.4431,-4.4487,-4.4596,-4.4645,-4.4684,-4.475,-4.4766,-4.477,-4.4786,-4.483,-4.4836,-4.4841,-4.4864,-4.4871,-4.4776,-4.4776,-4.4776,0,-4.3936,-4.4027,-4.4072,-4.4134,-4.4176,-4.4209,-4.4269,-4.4315,-4.4404,-4.4433,-4.4428,-4.4567,-4.4617,-4.471,-4.4726,-4.4757,-4.4775,-4.4759,-4.4831,-4.4837,-4.4843,-4.4865,-4.4873,-4.4775,-4.4775,-4.4775,-4.4775,0,-4.4025,-4.4088,-4.4127,-4.4212,-4.4259,-4.432,-4.4374,-4.4417,-4.4441,-4.4481,-4.4562,-4.4624,-4.4699,-4.4724,-4.4748,-4.4821,-4.4817,-4.4821,-4.4812,-4.4849,-4.487,-4.4879,-4.4775,-4.4775,-4.4775,-4.4775,0,0,-4.4056,-4.4166,-4.4179,-4.4218,-4.4302,-4.4352,-4.4415,-4.4489,-4.4524,-4.4586,-4.464,-4.4733,-4.4737,-4.4782,-4.4813,-4.4852,-4.4899,-4.4852,-4.4854,-4.4857,-4.4982,-4.4976,-4.4986,-4.4911,-4.4913,-4.4914,-4.4976,0,-4.411,-4.4223,-4.4265,-4.4358,-4.4417,-4.4449,-4.4505,-4.4562,-4.4602,-4.4658,-4.4703,-4.4767,-4.4769,-4.4796,-4.4836,-4.4884,-4.4924,-4.4881,-4.4961,-4.4963,-4.494,-4.4997,-4.4992,-4.5046,-4.4984,-4.4986,-4.4987,0,-4.4189,-4.425,-4.4348,-4.4425,-4.4451,-4.45,-4.4571,-4.4625,-4.4691,-4.4718,-4.4768,-4.4796,-4.4864,-4.4852,-4.4946,-4.4916,-4.4952,-4.4981,-4.4984,-4.4992,-4.4976,-4.5005,-4.5065,-4.5073,-4.5001,-4.5,-4.4999,0,-4.42,-4.4308,-4.4381,-4.4413,-4.4505,-4.4538,-4.4578,-4.4643,-4.4685,-4.4748,-4.4776,-4.4846,-4.4885,-4.4939,-4.4986,-4.4973,-4.5076,-4.5067,-4.5099,-4.5098,-4.5117,-4.5115,-4.5183,-4.5143,-4.5143,-4.5143,-4.5143,0,-4.4255,-4.4314,-4.4387,-4.4431,-4.4498,-4.4547,-4.4612,-4.4654,-4.4712,-4.4766,-4.4799,-4.4849,-4.4908,-4.4966,-4.5003,-4.5076,-4.5093,-4.5116,-4.5125,-4.5112,-4.5109,-4.5135,-4.5132,-4.5145,-4.5145,-4.5144,-4.5144,0,-4.4278,-4.433,-4.4411,-4.4491,-4.4512,-4.4558,-4.4627,-4.4672,-4.4713,-4.4781,-4.48,-4.4865,-4.4935,-4.4988,-4.5078,-4.5104,-4.518,-4.519,-4.5157,-4.5161,-4.5189,-4.5185,-4.5274,-4.5288,-4.5241,-4.5241,-4.5241,0,-4.431,-4.4355,-4.444,-4.4478,-4.4518,-4.4579,-4.4622,-4.4672,-4.4716,-4.4795,-4.4831,-4.4903,-4.4963,-4.5073,-4.5129,-4.5199,-4.521,-4.5237,-4.5221,-4.5206,-4.5209,-4.5205,-4.521,-4.5238,-4.5238,-4.5238,-4.5239,0,-4.4359,-4.4383,-4.4443,-4.4512,-4.4562,-4.4619,-4.4677,-4.4707,-4.4768,-4.4816,-4.4887,-4.4934,-4.5026,-4.5097,-4.5173,-4.5215,-4.5237,-4.5244,-4.5254,-4.5241,-4.5219,-4.523,-4.5161,-4.5241,-4.5241,-4.524,-4.524,-4.524,-4.4387,-4.4429,-4.4495,-4.4561,-4.461,-4.4663,-4.4709,-4.4757,-4.4817,-4.4895,-4.4922,-4.4996,-4.5063,-4.5166,-4.5209,-4.5268,-4.5268,-4.5284,-4.5287,-4.529,-4.5288,-4.5211,-4.5282,-4.5282,-4.5282,-4.5282,-4.5282,0,-4.4437,-4.4482,-4.4542,-4.4622,-4.4674,-4.469,-4.4756,-4.4798,-4.4862,-4.4922,-4.498,-4.5063,-4.5132,-4.5194,-4.5267,-4.5302,-4.5314,-4.5319,-4.5316,-4.5325,-4.5285,-4.5268,-4.5308,-4.5308,-4.5308,-4.5308,-4.5308,-4.5308,-4.4469,-4.4541,-4.4572,-4.4669,-4.4713,-4.4785,-4.482,-4.487,-4.4918,-4.5008,-4.5066,-4.5106,-4.5167,-4.5244,-4.5308,-4.5325,-4.535,-4.5352,-4.5371,-4.5332,-4.5328,-4.5325,-4.5309,-4.5357,-4.5357,-4.5406,-4.5407,-4.5407]},{"header":{"parameterUnit":"m.s-1","parameterCategory":1,"la1":30.2991,"la2":30.254,"lo1":-89.0895,"lo2":-89.0444,"dy":0.0017,"dx":0.0017,"nx":28,"ny":28,"refTime":"2025-03-31T21:00:00:Z","depth":0,"parameterNumber":3,"parameterNumberName":"V-component_of_WINDS"},"data":[0,0,0,0,0,0,0,0,0,0,0,0,0,0,0,0,0,0,0,0,0,0,0,0,0,0,0,0,0,0,0,0,0,0,0,0,0,0,0,0,0,0,0,0,0,0,0,0,0,0,0,0,0,0,0,0,0,0,6.9875,6.9876,0,6.998,6.9981,6.9982,6.9961,6.9959,6.9958,6.9956,7.0059,7.0063,7.0068,0,0,0,0,0,0,0,0,0,0,0,0,0,6.9654,6.9658,6.9875,6.9876,6.9877,6.9979,6.9981,6.9982,6.9962,6.9959,6.9957,6.9955,7.0058,7.0063,7.0068,0,0,0,0,0,0,0,0,0,0,0,0,0,6.9754,6.966,6.9874,6.9879,6.9881,6.9979,6.9981,6.9983,6.9962,6.9959,6.9956,6.9954,7.0056,7.0062,7.0069,7.0168,0,0,7.009,7.0093,0,0,0,0,0,0,0,0,6.9748,6.9762,6.9877,6.9879,6.9881,6.9955,6.9941,7.0044,6.9963,6.9931,6.9956,6.9952,7.0026,7.0035,7.0061,7.0172,7.0177,7.009,7.0095,7.0097,7.0099,0,0,0,0,0,0,0,6.9741,6.9757,6.9916,6.9879,6.9881,6.9876,6.9887,6.996,6.9993,6.9934,6.9932,6.9945,7.0027,7.0055,7.0063,7.0178,7.009,7.0096,7.01,7.0103,7.0378,7.0381,0,0,0,0,0,0,6.9733,6.9751,6.9913,6.9919,6.9806,6.9882,6.9894,6.9934,6.9992,6.9999,6.9948,6.9944,7.0044,7.0055,7.0067,7.0188,7.0097,7.0104,7.0108,7.0375,7.0379,7.0382,0,0,0,0,0,0,6.9728,6.9748,6.9908,6.9835,6.9855,6.9889,6.9933,6.9937,6.9965,7.0003,7.0008,6.997,7.0043,7.0057,7.0144,7.0191,7.0107,7.0113,7.0371,7.0376,7.0381,7.0429,0,0,0,0,0,0,6.9722,6.9746,6.9784,6.9836,6.9859,6.9984,6.9936,6.9941,6.9977,6.9974,7.0026,7.0032,7.0042,7.0134,7.015,7.0199,7.0118,7.0367,7.0373,7.0379,7.0424,7.0435,7.0445,0,0,0,0,0,6.9714,6.9792,6.9786,6.9806,6.9908,6.9987,7.0,7.0011,6.9981,7.002,7.0045,7.003,7.0183,7.0143,7.0161,7.0212,7.0364,7.0371,7.0379,7.0419,7.0433,7.0445,0,0,0,0,0,0,6.9743,6.9799,6.9793,6.989,6.9934,6.9983,7.0032,7.0025,7.0077,7.0071,7.0082,7.0094,7.0182,7.0205,7.0159,7.0312,7.0269,7.0281,7.0293,7.0307,7.0318,7.031,7.0124,0,0,0,0,0,6.9761,6.9822,6.9867,6.9948,6.9971,6.9998,7.0033,7.0038,7.0083,7.0101,7.0132,7.0175,7.0234,7.0272,7.0327,7.0427,7.0439,7.0471,7.0482,7.0491,7.0501,7.0557,7.0573,7.0406,7.0406,7.0406,0,0,6.9798,6.9836,6.9873,6.9955,6.999,7.0052,7.0013,7.008,7.0126,7.0111,7.0195,7.0219,7.0268,7.0363,7.0406,7.0385,7.055,7.05,7.0507,7.0512,7.0566,7.0582,7.0596,7.0411,7.041,7.041,0,0,6.9898,6.9932,7.0005,7.0042,7.0095,7.0113,7.0131,7.0182,7.0198,7.0283,7.0273,7.0327,7.0427,7.0463,7.0495,7.0611,7.06,7.0629,7.0685,7.074,7.0753,7.0765,7.0808,7.0823,7.0638,7.0638,7.0638,0,6.9937,7.0031,7.0043,7.0112,7.0149,7.014,7.0214,7.0247,7.0316,7.0341,7.0318,7.0444,7.0477,7.058,7.0609,7.0634,7.0655,7.0623,7.0751,7.0762,7.0773,7.0814,7.083,7.0642,7.0641,7.0641,7.0641,0,7.0077,7.0143,7.0195,7.0264,7.0306,7.0377,7.04,7.0441,7.0443,7.0463,7.0551,7.059,7.0654,7.0679,7.068,7.0783,7.0769,7.0748,7.0705,7.0792,7.0831,7.0847,7.0646,7.0645,7.0644,7.0643,0,0,7.0197,7.0274,7.0293,7.0325,7.0385,7.0435,7.0506,7.0571,7.0607,7.0654,7.0714,7.08,7.0782,7.0818,7.0823,7.0871,7.0963,7.0845,7.0846,7.0866,7.1081,7.1097,7.1115,7.0956,7.0959,7.0962,7.1077,0,7.0303,7.043,7.0444,7.0557,7.0618,7.0611,7.0673,7.0716,7.0738,7.0792,7.0815,7.0877,7.0847,7.0869,7.0916,7.0942,7.1006,7.0934,7.1012,7.1015,7.1001,7.1135,7.1152,7.1259,7.1092,7.1095,7.1097,0,7.0444,7.0499,7.0619,7.0672,7.0698,7.0754,7.0815,7.0868,7.0917,7.0929,7.097,7.097,7.1043,7.0998,7.1099,7.105,7.1082,7.11,7.1105,7.1113,7.1062,7.1148,7.1293,7.131,7.112,7.1118,7.1117,0,7.0522,7.0625,7.071,7.0738,7.0802,7.0841,7.0869,7.0916,7.0955,7.1008,7.1033,7.1094,7.1127,7.1174,7.119,7.1155,7.1291,7.1246,7.1303,7.1303,7.1333,7.1331,7.1486,7.1352,7.1352,7.1352,7.1351,0,7.064,7.0713,7.0747,7.0799,7.0882,7.0897,7.0978,7.1004,7.1046,7.1104,7.11,7.1154,7.1172,7.1229,7.1242,7.1325,7.1339,7.1351,7.1354,7.1352,7.1351,7.1374,7.1368,7.1356,7.1355,7.1354,7.1354,0,7.074,7.0765,7.0858,7.0912,7.0927,7.0986,7.1032,7.1083,7.1104,7.1177,7.1195,7.1227,7.1295,7.1316,7.1395,7.1404,7.1502,7.1497,7.1486,7.1487,7.1543,7.1538,7.172,7.1745,7.1593,7.1595,7.1596,0,7.0814,7.0871,7.0932,7.0971,7.1002,7.1064,7.1105,7.1122,7.1164,7.1225,7.1269,7.1336,7.139,7.1498,7.1528,7.159,7.1588,7.1647,7.1597,7.1594,7.159,7.1587,7.1594,7.1657,7.1659,7.166,7.1661,0,7.0944,7.0954,7.1013,7.1077,7.1126,7.1176,7.1225,7.1257,7.1281,7.1329,7.1398,7.1441,7.1524,7.1591,7.1654,7.1682,7.1676,7.1677,7.1693,7.1693,7.1684,7.1691,7.1513,7.1672,7.1671,7.167,7.167,7.1669,7.1035,7.1086,7.1137,7.1204,7.1243,7.1289,7.134,7.1369,7.1428,7.1498,7.1504,7.158,7.1629,7.1713,7.1745,7.1804,7.1787,7.1811,7.1817,7.1823,7.1828,7.1675,7.1815,7.1815,7.1815,7.1815,7.1814,0,7.1165,7.1199,7.1259,7.1329,7.1382,7.1373,7.1427,7.1471,7.1538,7.1585,7.1639,7.172,7.1785,7.1822,7.1887,7.1927,7.1926,7.1944,7.1942,7.1949,7.1839,7.1819,7.1944,7.1944,7.1944,7.1944,7.1944,7.1944,7.124,7.1327,7.1343,7.145,7.1482,7.1558,7.159,7.1632,7.167,7.1761,7.1816,7.184,7.1883,7.1952,7.2011,7.202,7.2045,7.2065,7.2072,7.1969,7.1956,7.1943,7.1925,7.207,7.207,7.2177,7.2178,7.2179]}]]